Regional Weather Roundup
Issued by NWS Raleigh/Durham, NC

Home | Current Version | Previous Version | Text Only | Print | Product List | Glossary On
Versions: 1 2 3 4 5 6 7 8 9 10 11 12 13 14 15 16 17 18 19 20 21 22 23 24 25 26 27
000
ASUS42 KRAH 050910
RWRRAH
NORTH CAROLINA WEATHER ROUNDUP
NATIONAL WEATHER SERVICE RALEIGH NC
500 AM EDT THU MAY 05 2016

NOTE: "FAIR" INDICATES FEW OR NO CLOUDS BELOW 12,000 FEET WITH NO
SIGNIFICANT WEATHER AND/OR OBSTRUCTIONS TO VISIBILITY.

NCZ001-053-055-056-065-067-051000-
WESTERN NORTH CAROLINA

CITY           SKY/WX    TMP DP  RH WIND       PRES   REMARKS
ASHEVILLE      PTCLDY    45  40  82 N9G18     29.65S
JEFFERSON      DRIZZLE   42  38  87 NW7       29.63S
MORGANTON      CLOUDY    51  43  73 CALM      29.66S
HICKORY        CLOUDY    52  40  63 N6        29.60F
RUTHERFORDTON  CLOUDY    53  40  61 N3        29.62S
MOUNT AIRY     LGT RAIN  52  49  89 N3        29.62S
BOONE          DRIZZLE   42  38  86 NW13G18   29.64S
$$

NCZ021-022-025-041-071-084-088-051000-
CENTRAL NORTH CAROLINA

CITY           SKY/WX    TMP DP  RH WIND       PRES   REMARKS
CHARLOTTE      CLOUDY    55  46  71 NW6       29.58F
GREENSBORO     LGT RAIN  54  46  74 VRB6      29.58S
WINSTON-SALEM  LGT RAIN  53  47  79 N7        29.61R
RALEIGH-DURHAM FOG       54  54 100 CALM      29.55S VSB 1
FORT BRAGG     CLEAR     55  52  90 N1        29.51F
FAYETTEVILLE   CLEAR     58  50  75 NW3       29.52F
BURLINGTON     CLOUDY    55  47  74 NW9       29.56F
LAURINBURG     PTCLDY    54  51  90 CALM      29.54F FOG
$$

NCZ011-015-027-028-043-044-047-080-103-051000-
NORTHEASTERN NORTH CAROLINA

CITY           SKY/WX    TMP DP  RH WIND       PRES   REMARKS
ROCKY MT-WILSO CLOUDY    59  57  93 NE6       29.55S
GREENVILLE     MOCLDY    59  59 100 CALM      29.57F
WASHINGTON     CLOUDY    58  56  93 E9        29.54F FOG
ELIZABETH CITY CLOUDY    54  54 100 NE12      29.56S FOG
MANTEO         CLOUDY    53  53 100 NE13G21   29.56S FOG
CAPE HATTERAS  CLOUDY    58  56  93 NE12G18   29.52S
$$

NCZ078-087-090-091-093-098-101-051000-
SOUTHEASTERN NORTH CAROLINA

CITY           SKY/WX    TMP DP  RH WIND       PRES   REMARKS
LUMBERTON      CLEAR     54  52  93 CALM      29.52F
GOLDSBORO      MOCLDY    60  60 100 NE7       29.51S
KINSTON        CLOUDY    60  60  99 E7        29.54S FOG
KENANSVILLE    CLOUDY    61  60  98 CALM      29.53F FOG
NEW BERN       CLOUDY    61  58  90 NE10      29.55R
CHERRY POINT   CLOUDY    62  59  90 NE16      29.54R
BEAUFORT       CLOUDY    63  60  90 NE8       29.52F
JACKSONVILLE   CLOUDY    64  61  90 N7        29.52R
WILMINGTON     MOCLDY    60  57  89 CALM      29.52S
$$





USA.gov is the U.S. government's official web portal to all federal, state and local government web resources and services.